Flag for Germany Weather past 2 weeks in Regensburg, Bavaria, Germany

Now
65 °F

Overcast.


Feels Like: 65 °F
Forecast: 49 / 65 °F
Wind: 3 mph from North

Location: Regensburg

Current Time: May 23, 2015 at 12:34:14 PM

Latest Report: May 23, 2015 at 12:00 PM


Visibility: 16 mi

Pressure: 30.05 "Hg

Humidity: 44%

Dew point: 43 °F

Location of RegensburgLocation

Historic Weather in Regensburg — Graph

°F

Regensburg temperature yesterday

Maximum temperature yesterday: 64 °F (at 2:00 PM)
Minimum temperature yesterday: 40 °F (at 5:00 AM)
Average temperature yesterday: 53 °F

Past Weeks' High & Low Weather Summary

 TemperatureHumidityPressure
High80 °F (May 12, 6:00 PM)100% (May 21, 3:00 AM)30.39 "Hg (May 21, 3:00 AM)
Low40 °F (May 22, 5:00 AM)31% (May 16, 1:00 PM)29.70 "Hg (May 18, 8:00 PM)
Average58 °F70%30.07 "Hg
* Reported May 8 11:00 AM — May 23 11:00 AM, Regensburg, Weather by CustomWeather, © 2015

Note: Actual official high and low records may vary slightly from our data, if they occured in-between our weather recording intervals... More about our weather records

Advertising

Regensburg weather history for previous 24 hours

 ConditionsComfort  
Time TempWeatherWind HumidityBarometerVisibility
11:00 AM
Sat, May 23
62 °FOvercast.2 mph57%30.07 "Hg28 mi
10:00 AM56 °FOvercast.3 mph66%30.09 "Hg19 mi
9:00 AM53 °FOvercast.2 mph74%30.11 "Hg19 mi
8:00 AM49 °FOvercast.3 mph80%30.12 "Hg17 mi
7:00 AM47 °FOvercast.2 mph83%30.12 "Hg18 mi
6:00 AM46 °FOvercast.1 mph90%30.13 "Hg14 mi
5:00 AM45 °FPassing clouds.1 mph93%30.13 "Hg13 mi
4:00 AM46 °FPassing clouds.2 mph90%30.14 "Hg14 mi
3:00 AM49 °FOvercast.1 mph85%30.14 "Hg14 mi
2:00 AM49 °FOvercast.1 mph83%30.16 "Hg16 mi
1:00 AM51 °FOvercast.2 mph80%30.17 "Hg18 mi
12:00 AM52 °FOvercast.2 mph75%30.17 "Hg22 mi
11:00 PM
Fri, May 22
54 °FOvercast.1 mph67%30.18 "Hg28 mi
10:00 PM56 °FOvercast.1 mph53%30.17 "Hg31 mi
9:00 PM57 °FOvercast.1 mph51%30.16 "Hg37 mi
8:00 PM59 °FOvercast.1 mph49%30.16 "Hg31 mi
7:00 PM60 °FPartly sunny.2 mph44%30.16 "Hg37 mi
6:00 PM62 °FOvercast.3 mph39%30.16 "Hg34 mi
5:00 PM64 °FScattered clouds.3 mph37%30.16 "Hg31 mi
4:00 PM63 °FScattered clouds.5 mph39%30.19 "Hg19 mi
3:00 PM62 °FPartly sunny.3 mph41%30.21 "Hg25 mi
2:00 PM64 °FPartly sunny.2 mph43%30.22 "Hg19 mi
1:00 PM61 °FPartly sunny.3 mph49%30.25 "Hg19 mi
12:00 PM59 °FScattered clouds.3 mph53%30.27 "Hg18 mi
Weather by CustomWeather, © 2015

See weather overviewHow to use our weather pages